Theta_e
321 323 330 328 328 330 327 330 332 329 321 321 322 322 322 322 323 316 316 318 318 320 324 329 330 331 332 333 333 333 331 329 327 329 329 329 329 329 329 329 329 328 329 329
320 326 326 327 326 328 329 332 334 327 315 317 320 321 321 320 321 322 320 319 317 317 319 325 330 331 332 332 333 333 332 331 330 328 329 328 328 329 328 329 329 329 329 329
324 323 324 328 328 328 330 331 333 335 319 317 317 320 320 320 319 317 316 315 315 315 315 319 326 330 332 332 333 333 333 332 332 330 329 329 329 329 330 330 329 329 329 329
323 321 323 325 327 326 331 325 328 329 323 325 319 323 321 320 321 320 317 312 312 312 313 314 323 327 331 332 333 333 333 333 334 333 331 330 331 330 330 331 331 331 330 329
321 321 323 326 326 324 326 322 323 322 324 324 324 321 318 317 318 320 320 317 313 311 311 312 317 325 329 330 332 333 333 334 334 334 333 332 331 331 332 331 332 332 331 331
318 319 321 323 322 322 319 319 320 320 321 324 322 320 316 316 317 317 319 320 319 316 314 311 315 322 326 329 330 331 332 333 333 334 334 334 333 332 332 332 333 333 333 332
317 322 314 320 323 319 319 319 321 324 323 321 311 318 316 316 317 317 317 315 315 313 315 315 310 313 322 326 329 330 331 331 332 333 334 334 334 333 332 332 332 333 334 333
322 324 317 317 323 321 319 321 321 321 321 317 310 315 314 315 314 313 312 311 309 311 308 308 312 313 314 320 326 330 331 331 331 331 333 334 335 334 333 333 333 333 334 334
321 319 316 316 320 318 320 322 317 315 305 316 315 315 315 314 314 314 312 310 309 309 310 309 309 311 312 313 315 321 327 329 330 330 331 332 334 334 334 333 333 334 334 334
316 318 316 315 316 315 319 317 318 318 315 317 316 317 315 315 314 311 311 310 310 310 309 308 307 309 309 309 310 310 310 313 319 326 327 330 332 333 333 333 332 332 332 331
313 315 313 311 315 316 313 319 316 317 318 321 320 315 313 312 312 310 308 309 309 310 309 307 308 310 310 310 309 309 309 310 310 310 314 322 328 330 331 329 329 329 330 330
313 313 313 314 307 307 313 317 316 317 320 317 317 316 310 310 309 307 308 309 309 310 308 307 308 309 309 310 311 312 311 311 311 312 313 317 322 324 326 325 325 325 326 326
311 312 315 315 312 308 312 313 316 313 315 317 315 314 308 307 307 308 309 309 308 309 309 308 308 308 309 310 312 313 313 313 312 312 311 311 313 316 320 320 321 322 323 324
312 312 314 316 316 312 313 314 315 315 314 318 316 314 308 307 307 308 308 308 310 308 308 308 308 308 309 310 311 312 313 313 312 311 311 311 311 312 312 312 316 320 321 321
312 310 311 311 310 312 313 315 314 316 315 316 315 315 313 309 309 307 306 311 310 309 307 307 307 307 309 309 310 311 312 311 310 310 310 310 308 309 308 309 311 310 313 313
311 308 307 308 310 311 314 315 314 315 315 315 314 314 313 311 311 310 310 309 309 309 307 306 306 307 309 309 309 310 311 310 309 309 309 308 307 306 306 306 306 308 309 312
311 307 309 306 310 311 311 313 314 315 314 315 315 313 309 309 310 309 308 308 308 307 306 305 305 306 308 309 309 309 309 309 308 308 308 307 308 308 309 308 308 308 309 310
309 311 311 308 306 309 309 310 313 314 314 314 314 311 311 311 309 307 307 308 307 306 306 305 305 307 308 309 309 308 308 308 307 306 306 306 307 308 307 307 306 305 305 305
309 311 310 311 304 309 310 307 311 312 312 312 313 312 310 310 309 309 306 306 306 306 304 305 305 306 307 308 308 308 307 306 305 304 305 305 306 307 306 304 303 302 302 301
311 312 313 312 305 309 310 305 308 308 310 307 309 309 308 307 308 309 306 303 302 302 302 301 302 304 305 307 307 306 305 304 303 304 304 304 305 306 305 304 303 303 303 300
313 312 313 308 305 309 309 304 307 309 309 305 307 308 307 308 308 303 300 300 300 299 299 299 300 300 300 303 304 303 302 301 302 302 302 302 302 303 303 302 300 299 297 296
313 314 314 307 306 312 304 305 308 307 306 305 307 306 305 305 302 301 300 298 298 297 296 296 296 295 296 298 300 300 299 299 300 300 300 300 300 299 299 299 298 295 295 293
311 312 313 312 309 306 304 304 305 306 304 305 304 306 305 303 301 299 298 296 293 293 293 294 294 293 293 295 297 297 296 297 298 298 298 297 297 296 295 295 294 292 291 291
307 308 309 308 307 303 303 304 304 305 305 303 303 302 303 302 299 298 295 293 292 292 292 293 293 291 290 292 294 294 294 295 295 295 294 294 294 293 293 292 292 292 290 289
305 307 304 306 304 302 303 302 302 301 299 301 300 299 300 298 297 295 292 290 291 290 291 292 290 289 288 289 290 290 291 293 293 293 292 291 291 291 290 289 289 289 289 288
303 308 309 309 304 307 305 302 301 299 299 297 297 298 298 296 295 292 290 290 290 289 289 289 288 288 287 289 289 289 290 291 291 290 289 289 289 288 288 288 288 288 288 287
Wind_Speed
11 7 13 20 14 6 14 12 8 12 5 5 9 9 11 10 8 8 8 8 7 11 18 28 27 27 28 28 29 30 31 30 29 30 30 28 28 26 23 22 21 20 22 21
10 19 18 14 15 14 9 12 9 5 6 2 7 11 9 10 10 10 9 9 9 7 10 20 29 31 33 34 35 33 33 32 34 33 34 32 30 28 28 25 25 25 24 24
21 15 17 19 18 17 14 11 9 6 5 5 6 10 11 11 11 9 10 8 9 9 9 9 20 29 28 31 36 38 38 37 35 32 30 24 24 24 24 26 27 29 28 27
12 11 19 18 19 17 16 11 9 8 4 2 6 5 5 5 16 17 13 11 12 10 8 8 19 26 31 34 31 33 35 35 35 34 31 31 29 25 29 30 31 30 30 32
14 22 24 21 18 13 5 9 4 6 1 6 5 2 6 7 6 8 18 14 13 12 10 10 14 28 35 34 37 38 35 35 34 36 34 35 32 32 28 30 32 33 34 31
4 5 12 7 8 9 8 10 7 3 2 6 10 8 5 6 7 8 4 10 14 11 11 12 25 24 29 33 36 35 35 38 39 39 42 38 34 29 27 30 29 32 33 33
4 7 4 9 14 6 8 12 3 2 4 6 5 8 10 5 3 2 1 6 4 3 4 7 10 16 24 30 35 36 34 34 32 33 34 37 33 32 30 30 29 27 30 33
13 10 13 11 24 13 20 13 5 7 5 4 4 7 6 8 2 5 3 3 6 4 2 4 4 17 21 24 27 30 31 33 31 33 36 34 33 31 32 30 28 28 29 31
12 5 11 15 18 13 14 16 5 6 0 2 5 6 7 10 4 4 7 7 7 6 7 8 6 6 16 21 26 29 31 32 31 32 35 34 34 35 33 29 29 29 29 29
5 6 7 7 8 5 18 11 5 2 5 5 5 4 6 4 7 6 5 5 3 4 5 3 2 5 5 8 12 18 25 31 34 32 29 35 34 33 35 30 28 28 28 26
14 6 2 7 8 17 6 15 6 5 4 5 1 5 6 9 8 8 7 6 5 3 2 2 3 4 2 5 8 10 14 16 16 22 26 25 26 27 29 29 29 28 26 26
3 6 9 12 3 5 6 12 4 5 6 2 3 5 3 9 9 9 8 7 5 3 3 2 2 2 4 5 6 8 10 12 14 14 18 20 20 22 23 24 26 28 29 28
8 6 9 4 6 1 9 10 18 5 4 6 5 5 2 8 8 6 8 6 6 5 6 4 4 5 6 6 6 6 7 8 10 13 14 16 19 22 24 25 25 26 28 29
7 5 7 15 14 7 8 14 14 5 3 5 11 5 6 6 7 7 5 6 3 6 5 4 4 6 9 10 10 10 10 10 10 10 11 12 14 16 17 19 23 23 23 23
7 5 5 7 8 11 20 13 7 15 8 8 14 14 9 10 9 10 9 4 4 3 4 5 4 5 9 10 10 10 11 12 12 12 12 12 11 9 10 13 17 18 18 18
8 5 6 4 7 10 20 22 20 27 27 20 11 12 4 9 6 6 3 2 3 3 6 7 7 7 10 13 14 14 14 13 12 12 11 10 8 7 7 9 11 12 14 16
12 6 6 1 7 11 0 26 28 26 21 27 14 13 6 5 4 6 6 4 4 5 7 7 7 9 12 15 17 18 16 15 14 14 12 12 10 9 8 8 10 11 13 14
10 7 4 5 4 4 8 24 28 28 28 28 23 7 7 5 5 8 7 5 8 6 6 5 4 7 10 12 16 16 17 17 15 14 12 11 10 9 9 9 10 12 12 14
7 5 5 7 5 4 7 8 25 18 22 22 29 15 8 5 5 17 8 8 3 3 3 1 4 7 8 13 14 17 17 16 15 14 13 12 12 11 11 12 12 11 11 13
6 7 5 4 6 11 2 11 17 6 18 12 17 15 12 7 7 15 7 5 6 6 4 5 7 7 6 7 13 17 18 16 15 14 13 12 13 14 13 13 13 14 14 13
11 6 12 5 3 7 6 10 17 11 7 11 17 19 16 13 14 6 8 6 5 5 5 5 4 4 4 2 8 11 11 11 9 10 10 10 10 12 13 13 13 13 13 13
12 14 10 3 2 14 8 10 19 6 1 6 6 7 9 7 9 7 8 8 6 6 6 7 6 6 5 2 5 7 7 7 7 8 9 9 9 11 12 11 11 11 12 14
5 13 13 14 7 4 15 10 8 7 6 5 7 5 8 8 7 9 7 7 6 8 7 8 10 11 10 8 5 9 7 6 8 9 10 10 9 9 9 10 11 12 13 14
5 8 7 7 8 7 13 1 5 4 6 6 6 7 8 8 9 7 7 7 6 8 9 11 14 16 15 12 12 10 8 7 8 9 9 9 9 9 9 9 11 12 14 14
5 12 8 4 3 6 2 8 10 7 8 8 5 6 8 10 8 7 6 6 9 11 13 16 19 18 16 15 16 13 10 7 10 9 8 9 8 9 10 8 8 10 9 11
7 17 12 10 13 13 12 14 9 11 10 10 9 7 5 7 10 8 8 11 16 16 18 20 19 20 18 18 18 15 12 10 9 11 9 7 6 6 6 7 7 7 9 10
Wind_Direction
171 161 202 188 194 187 174 192 199 216 151 154 238 249 241 236 241 220 244 247 238 181 186 197 201 200 199 199 200 201 199 200 200 200 200 204 206 208 211 214 219 212 216 218
155 213 194 192 192 224 191 171 214 351 121 174 266 261 232 219 231 216 218 240 250 201 181 183 193 199 199 200 199 198 198 202 205 204 205 205 207 210 218 215 215 216 217 217
178 182 171 183 193 203 218 209 187 200 152 226 293 282 238 236 239 214 216 209 240 222 201 183 183 195 200 204 201 199 201 210 204 205 204 204 207 211 213 215 217 217 216 216
193 166 185 191 193 188 207 220 156 200 113 241 156 285 310 279 223 218 212 211 221 230 223 200 183 191 202 209 207 207 202 203 203 203 199 199 199 204 212 212 216 221 226 221
187 185 182 191 188 181 191 117 100 96 279 323 235 264 269 231 260 212 214 215 216 216 217 217 194 196 203 205 207 208 208 208 205 204 204 204 205 212 210 213 216 221 223 227
62 150 173 150 145 148 134 114 96 105 121 265 217 206 260 213 218 217 194 201 215 219 207 210 219 208 206 205 208 210 210 212 210 207 208 207 210 211 211 214 215 218 219 226
127 175 67 158 145 123 155 136 125 166 200 232 348 198 237 270 120 66 303 273 310 40 233 210 199 206 205 202 207 210 210 217 219 215 213 213 215 215 215 217 215 213 215 219
158 177 165 186 175 179 174 167 152 179 188 201 310 229 245 244 14 130 222 262 295 272 232 267 242 205 204 203 207 209 212 218 218 219 221 221 219 222 221 223 222 223 218 222
165 161 173 175 168 148 199 195 128 105 94 73 201 252 288 262 218 255 267 189 240 247 217 224 230 219 201 204 208 209 211 216 216 219 222 222 222 222 223 225 227 228 226 224
158 102 173 169 149 216 183 155 157 208 151 234 249 233 227 206 206 215 170 179 107 58 16 347 228 203 202 210 220 227 228 228 227 220 222 225 224 227 227 226 234 234 234 234
124 115 146 133 204 186 156 186 184 134 171 174 155 257 206 175 166 157 116 96 72 40 47 11 76 102 168 230 235 222 224 226 228 229 225 225 223 223 225 230 232 234 234 231
124 115 152 192 343 5 234 191 151 169 206 210 152 267 193 136 139 130 142 134 141 159 141 90 130 176 212 224 218 215 213 216 218 218 222 223 222 224 221 230 234 236 236 239
170 137 119 154 338 299 208 221 192 95 94 199 133 254 284 121 126 146 143 149 162 158 144 160 161 194 214 209 204 213 209 214 216 210 216 219 219 222 225 225 229 231 233 234
101 133 169 184 183 111 186 203 199 135 138 160 218 144 157 171 176 170 184 218 219 149 162 180 191 203 204 203 200 197 200 206 212 207 206 215 213 216 214 215 217 218 218 221
119 135 130 161 153 150 174 193 198 214 193 190 227 215 213 194 190 188 195 221 324 335 282 236 223 211 214 207 207 204 204 212 207 203 206 214 215 214 218 227 228 227 223 222
172 144 118 37 151 158 181 192 190 204 209 227 247 263 162 224 227 200 208 261 254 227 251 251 233 213 214 215 212 208 207 213 207 203 209 205 204 212 224 232 228 221 214 213
162 126 135 142 124 107 49 202 196 216 207 216 210 221 133 120 130 183 245 280 247 244 247 252 237 221 226 222 217 210 211 215 208 203 205 196 192 199 206 204 206 208 205 205
145 113 88 157 119 178 238 185 204 207 213 218 232 164 191 194 199 217 208 216 258 252 255 287 255 238 240 224 216 213 209 212 207 202 199 187 189 194 193 194 195 194 193 191
147 123 101 146 200 258 217 184 190 188 233 218 228 227 229 245 321 270 164 216 216 80 81 355 309 288 274 226 213 202 196 203 199 198 196 188 189 192 191 189 186 194 193 189
45 79 112 150 159 211 176 170 168 112 261 194 214 221 206 153 231 253 161 101 95 84 55 352 331 308 280 224 204 193 191 197 198 201 201 195 190 196 195 195 192 195 196 201
159 165 184 190 201 278 197 167 140 160 254 190 191 213 194 196 220 136 119 91 100 90 59 19 14 40 5 279 205 192 194 201 208 200 197 195 195 198 199 195 195 192 189 189
167 169 187 123 183 250 174 151 164 204 308 134 134 151 173 168 135 140 123 119 102 88 51 43 60 51 42 82 176 163 164 181 182 188 187 189 190 195 196 198 191 196 194 194
164 193 168 192 199 212 179 168 189 161 144 158 145 148 143 138 153 145 133 116 97 98 97 94 107 89 66 66 93 115 124 155 166 170 173 175 176 184 192 193 187 188 195 199
221 174 170 120 216 179 203 71 125 134 138 152 140 136 144 142 144 133 127 136 124 119 106 109 107 89 74 74 81 88 113 134 149 152 158 163 170 175 183 189 199 201 200 201
181 171 156 207 51 83 159 212 187 136 127 126 114 149 156 135 142 132 128 121 120 112 103 108 105 93 81 81 79 84 96 119 130 135 142 153 164 171 169 179 192 201 213 226
188 184 188 208 164 183 192 202 147 149 170 157 147 131 94 132 136 122 126 129 129 120 115 105 102 98 95 90 87 87 89 93 103 109 119 128 142 160 177 187 185 216 224 229